When you browse on this site, cookies collect data to enhance your experience and personalize the content and advertising you see.
Visit our Privacy Policy to learn more. By continuing to use the site, you agree to this use of cookies and data.
  • In Sweden
  • List of Countries
  • For 7 days
  • Water Temperature
  • Weather Map
  • Weather Widgets
  • user-avatar
    Login

    Hourly Weather Pákozd

    Today, 18 October, Friday

    Time Temperature Precipitation Wind Pressure Humidity
    00:00 +14°C° 0 mm 1 mps 748 mmHg 81%
    01:00 +14°C° 0 mm 1 mps 748 mmHg 84%
    02:00 +13°C° 0 mm 1 mps 747 mmHg 85%
    03:00 +13°C° 0 mm 1 mps 747 mmHg 85%
    04:00 +13°C° 0 mm 1 mps 747 mmHg 86%
    05:00 +13°C° 0 mm 1 mps 747 mmHg 85%
    06:00 +13°C° 0 mm 1 mps 747 mmHg 84%
    07:00 +14°C° 0 mm 1 mps 747 mmHg 83%
    08:00 +16°C° 0 mm 1 mps 748 mmHg 75%
    09:00 +17°C° 0 mm 2 mps 748 mmHg 66%
    10:00 +19°C° 0 mm 2 mps 748 mmHg 57%
    11:00 +20°C° 0 mm 3 mps 747 mmHg 53%
    12:00 +21°C° 0 mm 3 mps 747 mmHg 49%
    13:00 +22°C° 0 mm 4 mps 747 mmHg 45%
    14:00 +22°C° 0 mm 3 mps 746 mmHg 48%
    15:00 +21°C° 0 mm 3 mps 746 mmHg 51%
    16:00 +20°C° 0 mm 3 mps 746 mmHg 53%
    17:00 +19°C° 0 mm 3 mps 746 mmHg 60%
    18:00 +18°C° 0 mm 2 mps 746 mmHg 66%
    19:00 +16°C° 0 mm 1 mps 746 mmHg 72%
    20:00 +16°C° 0 mm 1 mps 746 mmHg 74%
    21:00 +16°C° 0 mm 1 mps 746 mmHg 75%
    22:00 +15°C° 0 mm 1 mps 746 mmHg 77%
    23:00 +15°C° 0 mm 1 mps 746 mmHg 78%

    Tomorrow, 19 October, Saturday

    Time Temperature Precipitation Wind Pressure Humidity
    00:00 +15°C° 0 mm 2 mps 746 mmHg 79%
    01:00 +14°C° 0 mm 2 mps 746 mmHg 80%
    02:00 +14°C° 0 mm 2 mps 746 mmHg 81%
    03:00 +13°C° 0 mm 2 mps 746 mmHg 83%
    04:00 +13°C° 0 mm 2 mps 746 mmHg 85%
    05:00 +13°C° 0 mm 2 mps 746 mmHg 84%
    06:00 +13°C° 0 mm 2 mps 746 mmHg 84%
    07:00 +13°C° 0 mm 2 mps 746 mmHg 84%
    08:00 +14°C° 0 mm 3 mps 746 mmHg 74%
    09:00 +17°C° 0 mm 4 mps 746 mmHg 64%
    10:00 +19°C° 0 mm 5 mps 746 mmHg 54%
    11:00 +21°C° 0 mm 5 mps 746 mmHg 49%
    12:00 +22°C° 0 mm 6 mps 746 mmHg 44%
    13:00 +23°C° 0 mm 7 mps 746 mmHg 40%
    14:00 +23°C° 0 mm 6 mps 745 mmHg 41%
    15:00 +22°C° 0 mm 5 mps 745 mmHg 43%
    16:00 +22°C° 0 mm 4 mps 745 mmHg 44%
    17:00 +20°C° 0 mm 4 mps 745 mmHg 49%
    18:00 +19°C° 0 mm 4 mps 745 mmHg 53%
    19:00 +18°C° 0 mm 4 mps 745 mmHg 57%
    20:00 +17°C° 0 mm 4 mps 746 mmHg 59%
    21:00 +17°C° 0 mm 4 mps 746 mmHg 61%
    22:00 +17°C° 0 mm 4 mps 746 mmHg 63%
    23:00 +15°C° 0 mm 4 mps 746 mmHg 66%

    Day after tomorrow, 20 October, Sunday

    Time Temperature Precipitation Wind Pressure Humidity
    00:00 +15°C° 0 mm 4 mps 746 mmHg 69%
    01:00 +15°C° 0 mm 4 mps 746 mmHg 72%
    02:00 +15°C° 0 mm 4 mps 746 mmHg 75%
    03:00 +15°C° 0 mm 4 mps 746 mmHg 77%
    04:00 +14°C° 0 mm 4 mps 746 mmHg 80%
    05:00 +14°C° 0 mm 4 mps 746 mmHg 79%
    06:00 +14°C° 0 mm 4 mps 746 mmHg 79%
    07:00 +14°C° 0 mm 4 mps 747 mmHg 79%
    08:00 +17°C° 0 mm 5 mps 747 mmHg 69%
    09:00 +20°C° 0 mm 6 mps 747 mmHg 60%
    10:00 +22°C° 0 mm 7 mps 747 mmHg 51%
    11:00 +23°C° 0 mm 7 mps 747 mmHg 46%
    12:00 +24°C° 0 mm 7 mps 747 mmHg 42%
    13:00 +26°C° 0 mm 8 mps 746 mmHg 38%
    14:00 +24°C° 0 mm 7 mps 746 mmHg 40%
    15:00 +24°C° 0 mm 7 mps 746 mmHg 42%
    16:00 +23°C° 0 mm 6 mps 746 mmHg 44%
    17:00 +22°C° 0 mm 6 mps 746 mmHg 49%
    18:00 +21°C° 0 mm 6 mps 746 mmHg 54%
    19:00 +20°C° 0 mm 5 mps 746 mmHg 59%
    20:00 +19°C° 0 mm 5 mps 746 mmHg 59%
    21:00 +19°C° 0 mm 5 mps 746 mmHg 59%
    22:00 +19°C° 0 mm 6 mps 746 mmHg 60%
    23:00 +19°C° 0 mm 6 mps 746 mmHg 61%

    21 October, Monday

    Time Temperature Precipitation Wind Pressure Humidity
    00:00 +17°C° 0 mm 6 mps 746 mmHg 63%
    01:00 +17°C° 0 mm 6 mps 746 mmHg 64%
    02:00 +17°C° 0 mm 6 mps 746 mmHg 65%
    03:00 +17°C° 0 mm 6 mps 746 mmHg 66%
    04:00 +17°C° 0 mm 5 mps 746 mmHg 67%
    05:00 +16°C° 0 mm 5 mps 747 mmHg 68%
    06:00 +17°C° 0 mm 4 mps 747 mmHg 69%
    07:00 +17°C° 0 mm 4 mps 747 mmHg 70%
    08:00 +19°C° 0 mm 4 mps 747 mmHg 65%
    09:00 +20°C° 0 mm 5 mps 748 mmHg 60%
    10:00 +22°C° 0 mm 5 mps 748 mmHg 55%
    11:00 +23°C° 0 mm 5 mps 748 mmHg 52%
    12:00 +25°C° 0 mm 4 mps 748 mmHg 49%
    13:00 +26°C° 0 mm 4 mps 748 mmHg 47%
    14:00 +26°C° 0 mm 3 mps 748 mmHg 49%
    15:00 +25°C° 0 mm 3 mps 748 mmHg 51%
    16:00 +24°C° 0 mm 2 mps 748 mmHg 54%
    17:00 +23°C° 0 mm 2 mps 749 mmHg 57%
    18:00 +20°C° 0 mm 2 mps 749 mmHg 61%
    19:00 +19°C° 0 mm 2 mps 749 mmHg 64%
    20:00 +18°C° 0 mm 2 mps 750 mmHg 66%
    21:00 +18°C° 0 mm 2 mps 750 mmHg 69%
    22:00 +17°C° 0 mm 2 mps 750 mmHg 71%
    23:00 +17°C° 0 mm 2 mps 750 mmHg 74%

    22 October, Tuesday

    Time Temperature Precipitation Wind Pressure Humidity
    00:00 +16°C° 0 mm 2 mps 751 mmHg 77%
    01:00 +16°C° 0 mm 2 mps 751 mmHg 80%
    02:00 +15°C° 0 mm 2 mps 751 mmHg 82%
    03:00 +15°C° 0 mm 2 mps 751 mmHg 83%
    04:00 +15°C° 0 mm 1 mps 751 mmHg 85%
    05:00 +15°C° 0 mm 1 mps 752 mmHg 85%
    06:00 +15°C° 0 mm 1 mps 752 mmHg 85%
    07:00 +15°C° 0 mm 1 mps 752 mmHg 85%
    08:00 +16°C° 0 mm 2 mps 753 mmHg 76%
    09:00 +18°C° 0 mm 2 mps 753 mmHg 68%
    10:00 +20°C° 0 mm 2 mps 753 mmHg 59%
    11:00 +21°C° 0 mm 2 mps 753 mmHg 55%
    12:00 +23°C° 0 mm 2 mps 753 mmHg 52%
    13:00 +24°C° 0 mm 2 mps 753 mmHg 48%
    14:00 +23°C° 0 mm 2 mps 753 mmHg 49%
    15:00 +23°C° 0 mm 1 mps 752 mmHg 51%
    16:00 +23°C° 0 mm 1 mps 752 mmHg 52%
    17:00 +21°C° 0 mm 1 mps 752 mmHg 56%
    18:00 +20°C° 0 mm 1 mps 752 mmHg 60%
    19:00 +19°C° 0 mm 1 mps 753 mmHg 64%
    20:00 +18°C° 0 mm 1 mps 753 mmHg 64%
    21:00 +16°C° 0 mm 2 mps 753 mmHg 65%
    22:00 +16°C° 0 mm 2 mps 753 mmHg 66%
    23:00 +15°C° 0 mm 2 mps 753 mmHg 68%

    23 October, Wednesday

    Time Temperature Precipitation Wind Pressure Humidity
    00:00 +14°C° 0 mm 2 mps 753 mmHg 69%
    01:00 +14°C° 0 mm 2 mps 753 mmHg 71%
    02:00 +13°C° 0 mm 2 mps 752 mmHg 73%
    03:00 +13°C° 0 mm 2 mps 752 mmHg 75%
    04:00 +12°C° 0 mm 2 mps 752 mmHg 77%
    05:00 +12°C° 0 mm 2 mps 752 mmHg 78%
    06:00 +12°C° 0 mm 2 mps 752 mmHg 78%
    07:00 +12°C° 0 mm 2 mps 752 mmHg 79%
    08:00 +13°C° 0 mm 3 mps 751 mmHg 72%
    09:00 +16°C° 0 mm 3 mps 751 mmHg 65%
    10:00 +18°C° 0 mm 4 mps 751 mmHg 58%
    11:00 +19°C° 0 mm 4 mps 751 mmHg 55%
    12:00 +20°C° 0 mm 4 mps 751 mmHg 52%
    13:00 +22°C° 0 mm 4 mps 750 mmHg 49%
    14:00 +21°C° 0 mm 4 mps 750 mmHg 50%
    15:00 +21°C° 0 mm 3 mps 749 mmHg 52%
    16:00 +20°C° 0 mm 3 mps 749 mmHg 54%
    17:00 +19°C° 0 mm 3 mps 749 mmHg 59%
    18:00 +18°C° 0 mm 3 mps 749 mmHg 63%
    19:00 +17°C° 0 mm 4 mps 748 mmHg 68%
    20:00 +15°C° 0 mm 4 mps 748 mmHg 70%
    21:00 +15°C° 0 mm 4 mps 748 mmHg 72%
    22:00 +16°C° 0 mm 3 mps 748 mmHg 75%
    23:00 +14°C° 0 mm 3 mps 748 mmHg 76%
    Show more